owner,sensor,date,latitude,longitude,air_temperature,qcFlag 
TABS,ioos:station:wmo:42045:1,2006-02-04T19:39:00Z,26.2168,-96.4998,21.0,11144222 
TABS,ioos:station:wmo:42045:1,2006-02-04T20:09:00Z,26.2168,-96.4998,19.6,11144222 
TABS,ioos:station:wmo:42045:1,2006-02-04T20:39:00Z,26.2168,-96.4998,19.9,11144222 
TABS,ioos:station:wmo:42045:1,2006-02-04T21:09:00Z,26.2168,-96.4998,20.3,11144222 
TABS,ioos:station:wmo:42045:1,2006-02-04T21:39:00Z,26.2168,-96.4998,20.6,11144222 
TABS,ioos:station:wmo:42045:1,2006-02-04T22:09:00Z,26.2168,-96.4998,20.9,11144222 
TABS,ioos:station:wmo:42045:1,2006-02-04T22:39:00Z,26.2168,-96.4998,21.1,11144222 
TABS,ioos:station:wmo:42045:1,2006-02-04T23:09:00Z,26.2168,-96.4998,21.3,11144222 
TABS,ioos:station:wmo:42045:1,2006-02-04T23:39:00Z,26.2168,-96.4998,21.0,11144222 
TABS,ioos:station:wmo:42045:1,2006-02-05T00:09:00Z,26.2168,-96.4998,20.6,11144222 
TABS,ioos:station:wmo:42045:1,2006-02-05T00:39:00Z,26.2168,-96.4998,20.6,11144222 
TABS,ioos:station:wmo:42045:1,2006-02-05T01:09:00Z,26.2168,-96.4998,20.7,11144222 
TABS,ioos:station:wmo:42045:1,2006-02-05T01:39:00Z,26.2168,-96.4998,20.8,11144222 
TABS,ioos:station:wmo:42045:1,2006-02-05T02:09:00Z,26.2168,-96.4998,21.0,11144222 
TABS,ioos:station:wmo:42045:1,2006-02-05T02:39:00Z,26.2168,-96.4998,21.1,11144222 
TABS,ioos:station:wmo:42045:1,2006-02-05T03:09:00Z,26.2168,-96.4998,20.9,11144222 
TABS,ioos:station:wmo:42045:1,2006-02-05T03:39:00Z,26.2168,-96.4998,21.0,11144222 
TABS,ioos:station:wmo:42045:1,2006-02-05T04:09:00Z,26.2168,-96.4998,21.3,11144222 
TABS,ioos:station:wmo:42045:1,2006-02-05T04:39:00Z,26.2168,-96.4998,21.4,11144222 
TABS,ioos:station:wmo:42045:1,2006-02-05T05:09:00Z,26.2168,-96.4998,21.5,11144222 
TABS,ioos:station:wmo:42045:1,2006-02-05T05:39:00Z,26.2168,-96.4998,21.4,11144222 
TABS,ioos:station:wmo:42045:1,2006-02-05T06:09:00Z,26.2168,-96.4998,21.5,11144222 
TABS,ioos:station:wmo:42045:1,2006-02-05T06:39:00Z,26.2168,-96.4998,21.5,11144222 
TABS,ioos:station:wmo:42045:1,2006-02-05T07:09:00Z,26.2168,-96.4998,21.6,11144222 
TABS,ioos:station:wmo:42045:1,2006-02-05T07:39:00Z,26.2168,-96.4998,21.6,11144222 
TABS,ioos:station:wmo:42045:1,2006-02-05T08:09:00Z,26.2168,-96.4998,21.7,11144222 
TABS,ioos:station:wmo:42045:1,2006-02-05T08:39:00Z,26.2168,-96.4998,21.8,11144222 
TABS,ioos:station:wmo:42045:1,2006-02-05T09:09:00Z,26.2168,-96.4998,21.8,11144222 
TABS,ioos:station:wmo:42045:1,2006-02-05T09:39:00Z,26.2168,-96.4998,21.8,11144222 
TABS,ioos:station:wmo:42045:1,2006-02-05T10:09:00Z,26.2168,-96.4998,21.8,11144222 
TABS,ioos:station:wmo:42045:1,2006-02-05T10:39:00Z,26.2168,-96.4998,21.8,11144222 
TABS,ioos:station:wmo:42045:1,2006-02-05T11:09:00Z,26.2168,-96.4998,21.7,11144222 
TABS,ioos:station:wmo:42045:1,2006-02-05T11:39:00Z,26.2168,-96.4998,21.8,11144222 
TABS,ioos:station:wmo:42045:1,2006-02-05T12:09:00Z,26.2168,-96.4998,21.9,11144222 
TABS,ioos:station:wmo:42045:1,2006-02-05T12:39:00Z,26.2168,-96.4998,21.9,11144222 
TABS,ioos:station:wmo:42045:1,2006-02-05T13:09:00Z,26.2168,-96.4998,21.9,11144222 
TABS,ioos:station:wmo:42045:1,2006-02-05T13:39:00Z,26.2168,-96.4998,22.1,11144222 
TABS,ioos:station:wmo:42045:1,2006-02-05T14:09:00Z,26.2168,-96.4998,22.3,11144222 
TABS,ioos:station:wmo:42045:1,2006-02-05T14:39:00Z,26.2168,-96.4998,22.4,11144222 
TABS,ioos:station:wmo:42045:1,2006-02-05T15:09:00Z,26.2168,-96.4998,22.4,11144222 
TABS,ioos:station:wmo:42045:1,2006-02-05T15:39:00Z,26.2168,-96.4998,22.5,11144222 
TABS,ioos:station:wmo:42045:1,2006-02-05T16:09:00Z,26.2168,-96.4998,22.5,11144222 
TABS,ioos:station:wmo:42045:1,2006-02-05T16:39:00Z,26.2168,-96.4998,22.6,11144222 
TABS,ioos:station:wmo:42045:1,2006-02-05T17:09:00Z,26.2168,-96.4998,22.6,11144222 
TABS,ioos:station:wmo:42045:1,2006-02-05T17:39:00Z,26.2168,-96.4998,22.7,11144222 
TABS,ioos:station:wmo:42045:1,2006-02-05T18:09:00Z,26.2168,-96.4998,22.8,11144222 
TABS,ioos:station:wmo:42045:1,2006-02-05T18:39:00Z,26.2168,-96.4998,22.8,11144222 
TABS,ioos:station:wmo:42045:1,2006-02-05T19:09:00Z,26.2168,-96.4998,22.9,11144222 
TABS,ioos:station:wmo:42045:1,2006-02-05T19:39:00Z,26.2168,-96.4998,22.9,11144222 
TABS,ioos:station:wmo:42045:1,2006-02-05T20:09:00Z,26.2168,-96.4998,23.0,11144222 
TABS,ioos:station:wmo:42045:1,2006-02-05T20:39:00Z,26.2168,-96.4998,23.0,11144222 
TABS,ioos:station:wmo:42045:1,2006-02-05T21:09:00Z,26.2168,-96.4998,23.1,11144222 
TABS,ioos:station:wmo:42045:1,2006-02-05T21:39:00Z,26.2168,-96.4998,23.1,11144222 
TABS,ioos:station:wmo:42045:1,2006-02-05T22:09:00Z,26.2168,-96.4998,23.2,11144222 
TABS,ioos:station:wmo:42045:1,2006-02-05T22:39:00Z,26.2168,-96.4998,23.3,11144222 
TABS,ioos:station:wmo:42045:1,2006-02-05T23:09:00Z,26.2168,-96.4998,23.2,11144222 
TABS,ioos:station:wmo:42045:1,2006-02-05T23:39:00Z,26.2168,-96.4998,23.3,11144222 
TABS,ioos:station:wmo:42045:1,2006-02-06T00:09:00Z,26.2168,-96.4998,23.1,11144222 
TABS,ioos:station:wmo:42045:1,2006-02-06T00:39:00Z,26.2168,-96.4998,23.1,11144222 
TABS,ioos:station:wmo:42045:1,2006-02-06T01:09:00Z,26.2168,-96.4998,23.1,11144222 
TABS,ioos:station:wmo:42045:1,2006-02-06T01:39:00Z,26.2168,-96.4998,23.1,11144222 
TABS,ioos:station:wmo:42045:1,2006-02-06T02:09:00Z,26.2168,-96.4998,23.1,11144222 
TABS,ioos:station:wmo:42045:1,2006-02-06T02:39:00Z,26.2168,-96.4998,23.1,11144222 
TABS,ioos:station:wmo:42045:1,2006-02-06T03:09:00Z,26.2168,-96.4998,23.2,11144222 
TABS,ioos:station:wmo:42045:1,2006-02-06T03:39:00Z,26.2168,-96.4998,23.2,11144222 
TABS,ioos:station:wmo:42045:1,2006-02-06T04:09:00Z,26.2168,-96.4998,23.3,11144222 
TABS,ioos:station:wmo:42045:1,2006-02-06T04:39:00Z,26.2168,-96.4998,23.3,11144222 
TABS,ioos:station:wmo:42045:1,2006-02-06T05:09:00Z,26.2168,-96.4998,23.4,11144222 
TABS,ioos:station:wmo:42045:1,2006-02-06T05:39:00Z,26.2168,-96.4998,23.3,11144222 
TABS,ioos:station:wmo:42045:1,2006-02-06T06:09:00Z,26.2168,-96.4998,23.3,11144222 
TABS,ioos:station:wmo:42045:1,2006-02-06T06:39:00Z,26.2168,-96.4998,23.2,11144222 
TABS,ioos:station:wmo:42045:1,2006-02-06T07:09:00Z,26.2168,-96.4998,23.3,11144222 
TABS,ioos:station:wmo:42045:1,2006-02-06T07:39:00Z,26.2168,-96.4998,23.3,11144222 
TABS,ioos:station:wmo:42045:1,2006-02-06T08:09:00Z,26.2168,-96.4998,23.3,11144222 
TABS,ioos:station:wmo:42045:1,2006-02-06T08:39:00Z,26.2168,-96.4998,23.3,11144222 
TABS,ioos:station:wmo:42045:1,2006-02-06T09:09:00Z,26.2168,-96.4998,23.4,11144222 
TABS,ioos:station:wmo:42045:1,2006-02-06T09:39:00Z,26.2168,-96.4998,23.4,11144222 
TABS,ioos:station:wmo:42045:1,2006-02-06T10:09:00Z,26.2168,-96.4998,23.3,11144222 
TABS,ioos:station:wmo:42045:1,2006-02-06T10:39:00Z,26.2168,-96.4998,23.3,11144222 
TABS,ioos:station:wmo:42045:1,2006-02-06T11:09:00Z,26.2168,-96.4998,23.4,11144222 
TABS,ioos:station:wmo:42045:1,2006-02-06T11:39:00Z,26.2168,-96.4998,23.3,11144222 
TABS,ioos:station:wmo:42045:1,2006-02-06T12:09:00Z,26.2168,-96.4998,23.3,11144222 
TABS,ioos:station:wmo:42045:1,2006-02-06T12:39:00Z,26.2168,-96.4998,23.4,11144222 
TABS,ioos:station:wmo:42045:1,2006-02-06T13:09:00Z,26.2168,-96.4998,23.3,11144222 
TABS,ioos:station:wmo:42045:1,2006-02-06T13:39:00Z,26.2168,-96.4998,23.4,11144222 
TABS,ioos:station:wmo:42045:1,2006-02-06T14:09:00Z,26.2168,-96.4998,23.5,11144222 
TABS,ioos:station:wmo:42045:1,2006-02-06T14:39:00Z,26.2168,-96.4998,23.5,11144222 
TABS,ioos:station:wmo:42045:1,2006-02-06T15:09:00Z,26.2168,-96.4998,23.5,11144222 
TABS,ioos:station:wmo:42045:1,2006-02-06T15:39:00Z,26.2168,-96.4998,23.6,11144222 
TABS,ioos:station:wmo:42045:1,2006-02-06T16:09:00Z,26.2168,-96.4998,23.4,11144222 
TABS,ioos:station:wmo:42045:1,2006-02-06T16:39:00Z,26.2168,-96.4998,23.5,11144222 
TABS,ioos:station:wmo:42045:1,2006-02-06T17:09:00Z,26.2168,-96.4998,23.6,11144222 
TABS,ioos:station:wmo:42045:1,2006-02-06T17:39:00Z,26.2168,-96.4998,23.6,11144222 
TABS,ioos:station:wmo:42045:1,2006-02-06T18:09:00Z,26.2168,-96.4998,22.9,11144222 
TABS,ioos:station:wmo:42045:1,2006-02-06T18:39:00Z,26.2168,-96.4998,22.8,11144222 
TABS,ioos:station:wmo:42045:1,2006-02-06T19:09:00Z,26.2168,-96.4998,22.8,11144222 
TABS,ioos:station:wmo:42045:1,2006-02-06T19:39:00Z,26.2168,-96.4998,22.3,11144222 
TABS,ioos:station:wmo:42045:1,2006-02-06T20:09:00Z,26.2168,-96.4998,22.2,11144222 
TABS,ioos:station:wmo:42045:1,2006-02-06T20:39:00Z,26.2168,-96.4998,22.0,11144222 
TABS,ioos:station:wmo:42045:1,2006-02-06T21:09:00Z,26.2168,-96.4998,21.1,11144222 
TABS,ioos:station:wmo:42045:1,2006-02-06T21:39:00Z,26.2168,-96.4998,20.9,11144222 
TABS,ioos:station:wmo:42045:1,2006-02-06T22:09:00Z,26.2168,-96.4998,20.7,11144222 
TABS,ioos:station:wmo:42045:1,2006-02-06T22:39:00Z,26.2168,-96.4998,20.6,11144222 
TABS,ioos:station:wmo:42045:1,2006-02-06T23:09:00Z,26.2168,-96.4998,20.8,11144222 
TABS,ioos:station:wmo:42045:1,2006-02-06T23:39:00Z,26.2168,-96.4998,20.9,11144222 
TABS,ioos:station:wmo:42045:1,2006-02-07T00:09:00Z,26.2168,-96.4998,21.1,11144222 
TABS,ioos:station:wmo:42045:1,2006-02-07T00:39:00Z,26.2168,-96.4998,21.3,11144222 
TABS,ioos:station:wmo:42045:1,2006-02-07T01:09:00Z,26.2168,-96.4998,21.3,11144222 
TABS,ioos:station:wmo:42045:1,2006-02-07T01:39:00Z,26.2168,-96.4998,21.3,11144222 
TABS,ioos:station:wmo:42045:1,2006-02-07T02:09:00Z,26.2168,-96.4998,21.3,11144222 
TABS,ioos:station:wmo:42045:1,2006-02-07T02:39:00Z,26.2168,-96.4998,20.9,11144222 
TABS,ioos:station:wmo:42045:1,2006-02-07T03:09:00Z,26.2168,-96.4998,20.7,11144222 
TABS,ioos:station:wmo:42045:1,2006-02-07T03:39:00Z,26.2168,-96.4998,20.7,11144222 
TABS,ioos:station:wmo:42045:1,2006-02-07T04:09:00Z,26.2168,-96.4998,20.7,11144222 
TABS,ioos:station:wmo:42045:1,2006-02-07T04:39:00Z,26.2168,-96.4998,20.7,11144222 
TABS,ioos:station:wmo:42045:1,2006-02-07T05:09:00Z,26.2168,-96.4998,20.6,11144222 
TABS,ioos:station:wmo:42045:1,2006-02-07T05:39:00Z,26.2168,-96.4998,20.3,11144222 
TABS,ioos:station:wmo:42045:1,2006-02-07T06:09:00Z,26.2168,-96.4998,20.1,11144222 
TABS,ioos:station:wmo:42045:1,2006-02-07T06:39:00Z,26.2168,-96.4998,19.8,11144222 
TABS,ioos:station:wmo:42045:1,2006-02-07T07:09:00Z,26.2168,-96.4998,19.6,11144222 
TABS,ioos:station:wmo:42045:1,2006-02-07T07:39:00Z,26.2168,-96.4998,19.3,11144222 
TABS,ioos:station:wmo:42045:1,2006-02-07T08:09:00Z,26.2168,-96.4998,19.0,11144222 
TABS,ioos:station:wmo:42045:1,2006-02-07T08:39:00Z,26.2168,-96.4998,18.8,11144222 
TABS,ioos:station:wmo:42045:1,2006-02-07T09:09:00Z,26.2168,-96.4998,18.6,11144222 
TABS,ioos:station:wmo:42045:1,2006-02-07T09:39:00Z,26.2168,-96.4998,18.4,11144222 
TABS,ioos:station:wmo:42045:1,2006-02-07T10:09:00Z,26.2168,-96.4998,18.2,11144222 
TABS,ioos:station:wmo:42045:1,2006-02-07T10:39:00Z,26.2168,-96.4998,18.0,11144222 
TABS,ioos:station:wmo:42045:1,2006-02-07T11:09:00Z,26.2168,-96.4998,18.0,11144222 
TABS,ioos:station:wmo:42045:1,2006-02-07T11:39:00Z,26.2168,-96.4998,17.9,11144222 
TABS,ioos:station:wmo:42045:1,2006-02-07T12:09:00Z,26.2168,-96.4998,17.9,11144222 
TABS,ioos:station:wmo:42045:1,2006-02-07T12:39:00Z,26.2168,-96.4998,17.9,11144222 
TABS,ioos:station:wmo:42045:1,2006-02-07T13:09:00Z,26.2168,-96.4998,18.0,11144222 
TABS,ioos:station:wmo:42045:1,2006-02-07T13:39:00Z,26.2168,-96.4998,18.3,11144222 
TABS,ioos:station:wmo:42045:1,2006-02-07T14:09:00Z,26.2168,-96.4998,18.4,11144222 
TABS,ioos:station:wmo:42045:1,2006-02-07T14:39:00Z,26.2168,-96.4998,18.3,11144222 
TABS,ioos:station:wmo:42045:1,2006-02-07T15:09:00Z,26.2168,-96.4998,18.4,11144222 
TABS,ioos:station:wmo:42045:1,2006-02-07T15:39:00Z,26.2168,-96.4998,18.3,11144222 
TABS,ioos:station:wmo:42045:1,2006-02-07T16:09:00Z,26.2168,-96.4998,18.1,11144222 
TABS,ioos:station:wmo:42045:1,2006-02-07T16:39:00Z,26.2168,-96.4998,18.0,11144222 
TABS,ioos:station:wmo:42045:1,2006-02-07T17:09:00Z,26.2168,-96.4998,18.0,11144222 
TABS,ioos:station:wmo:42045:1,2006-02-07T17:39:00Z,26.2168,-96.4998,17.9,11144222 
TABS,ioos:station:wmo:42045:1,2006-02-07T18:09:00Z,26.2168,-96.4998,17.9,11144222 
TABS,ioos:station:wmo:42045:1,2006-02-07T18:39:00Z,26.2168,-96.4998,17.8,11144222 
TABS,ioos:station:wmo:42045:1,2006-02-07T19:09:00Z,26.2168,-96.4998,17.7,11144222 
TABS,ioos:station:wmo:42045:1,2006-02-07T19:39:00Z,26.2168,-96.4998,17.7,11144222 
TABS,ioos:station:wmo:42045:1,2006-02-07T20:09:00Z,26.2168,-96.4998,17.7,11144222 
TABS,ioos:station:wmo:42045:1,2006-02-07T20:39:00Z,26.2168,-96.4998,17.7,11144222 
TABS,ioos:station:wmo:42045:1,2006-02-07T21:09:00Z,26.2168,-96.4998,17.7,11144222 
TABS,ioos:station:wmo:42045:1,2006-02-07T21:39:00Z,26.2168,-96.4998,17.7,11144222 
TABS,ioos:station:wmo:42045:1,2006-02-07T22:09:00Z,26.2168,-96.4998,17.7,11144222 
TABS,ioos:station:wmo:42045:1,2006-02-07T22:39:00Z,26.2168,-96.4998,17.7,11144222 
TABS,ioos:station:wmo:42045:1,2006-02-07T23:09:00Z,26.2168,-96.4998,17.6,11144222 
TABS,ioos:station:wmo:42045:1,2006-02-07T23:39:00Z,26.2168,-96.4998,17.6,11144222 
TABS,ioos:station:wmo:42045:1,2006-02-08T00:09:00Z,26.2168,-96.4998,17.5,11144222 
TABS,ioos:station:wmo:42045:1,2006-02-08T00:39:00Z,26.2168,-96.4998,17.5,11144222 
TABS,ioos:station:wmo:42045:1,2006-02-08T01:09:00Z,26.2168,-96.4998,17.6,11144222 
TABS,ioos:station:wmo:42045:1,2006-02-08T01:39:00Z,26.2168,-96.4998,17.5,11144222 
TABS,ioos:station:wmo:42045:1,2006-02-08T02:09:00Z,26.2168,-96.4998,17.5,11144222 
TABS,ioos:station:wmo:42045:1,2006-02-08T02:39:00Z,26.2168,-96.4998,17.7,11144222 
TABS,ioos:station:wmo:42045:1,2006-02-08T03:09:00Z,26.2168,-96.4998,17.6,11144222 
TABS,ioos:station:wmo:42045:1,2006-02-08T03:39:00Z,26.2168,-96.4998,17.7,11144222 
TABS,ioos:station:wmo:42045:1,2006-02-08T04:09:00Z,26.2168,-96.4998,17.7,11144222 
TABS,ioos:station:wmo:42045:1,2006-02-08T04:39:00Z,26.2168,-96.4998,17.7,11144222 
TABS,ioos:station:wmo:42045:1,2006-02-08T05:09:00Z,26.2168,-96.4998,17.8,11144222 
TABS,ioos:station:wmo:42045:1,2006-02-08T05:39:00Z,26.2168,-96.4998,17.9,11144222 
TABS,ioos:station:wmo:42045:1,2006-02-08T06:09:00Z,26.2168,-96.4998,17.9,11144222 
TABS,ioos:station:wmo:42045:1,2006-02-08T06:39:00Z,26.2168,-96.4998,17.9,11144222 
TABS,ioos:station:wmo:42045:1,2006-02-08T07:09:00Z,26.2168,-96.4998,18.0,11144222 
TABS,ioos:station:wmo:42045:1,2006-02-08T07:39:00Z,26.2168,-96.4998,18.0,11144222 
TABS,ioos:station:wmo:42045:1,2006-02-08T08:09:00Z,26.2168,-96.4998,18.0,11144222 
TABS,ioos:station:wmo:42045:1,2006-02-08T08:39:00Z,26.2168,-96.4998,18.0,11144222 
TABS,ioos:station:wmo:42045:1,2006-02-08T09:09:00Z,26.2168,-96.4998,17.9,11144222 
TABS,ioos:station:wmo:42045:1,2006-02-08T09:39:00Z,26.2168,-96.4998,18.0,11144222 
TABS,ioos:station:wmo:42045:1,2006-02-08T10:09:00Z,26.2168,-96.4998,18.1,11144222 
TABS,ioos:station:wmo:42045:1,2006-02-08T10:39:00Z,26.2168,-96.4998,18.2,11144222 
TABS,ioos:station:wmo:42045:1,2006-02-08T11:09:00Z,26.2168,-96.4998,18.1,11144222 
TABS,ioos:station:wmo:42045:1,2006-02-08T11:39:00Z,26.2168,-96.4998,18.2,11144222 
TABS,ioos:station:wmo:42045:1,2006-02-08T12:09:00Z,26.2168,-96.4998,18.2,11144222 
TABS,ioos:station:wmo:42045:1,2006-02-08T12:39:00Z,26.2168,-96.4998,18.2,11144222 
TABS,ioos:station:wmo:42045:1,2006-02-08T13:09:00Z,26.2168,-96.4998,18.2,11144222 
TABS,ioos:station:wmo:42045:1,2006-02-08T13:39:00Z,26.2168,-96.4998,18.4,11144222 
TABS,ioos:station:wmo:42045:1,2006-02-08T14:09:00Z,26.2168,-96.4998,18.7,11144222 
TABS,ioos:station:wmo:42045:1,2006-02-08T14:39:00Z,26.2168,-96.4998,18.8,11144222 
TABS,ioos:station:wmo:42045:1,2006-02-08T15:09:00Z,26.2168,-96.4998,18.9,11144222 
TABS,ioos:station:wmo:42045:1,2006-02-08T15:39:00Z,26.2168,-96.4998,18.8,11144222 
TABS,ioos:station:wmo:42045:1,2006-02-08T16:09:00Z,26.2168,-96.4998,18.9,11144222 
TABS,ioos:station:wmo:42045:1,2006-02-08T16:39:00Z,26.2168,-96.4998,18.9,11144222 
TABS,ioos:station:wmo:42045:1,2006-02-08T17:09:00Z,26.2168,-96.4998,18.9,11144222 
TABS,ioos:station:wmo:42045:1,2006-02-08T17:39:00Z,26.2168,-96.4998,19.1,11144222 
TABS,ioos:station:wmo:42045:1,2006-02-08T18:09:00Z,26.2168,-96.4998,19.1,11144222 
TABS,ioos:station:wmo:42045:1,2006-02-08T18:39:00Z,26.2168,-96.4998,19.0,11144222 
TABS,ioos:station:wmo:42045:1,2006-02-08T19:09:00Z,26.2168,-96.4998,19.1,11144222 
TABS,ioos:station:wmo:42045:1,2006-02-08T19:39:00Z,26.2168,-96.4998,19.0,11144222 
TABS,ioos:station:wmo:42045:1,2006-02-08T20:09:00Z,26.2168,-96.4998,19.0,11144222 
TABS,ioos:station:wmo:42045:1,2006-02-08T20:39:00Z,26.2168,-96.4998,19.0,11144222 
TABS,ioos:station:wmo:42045:1,2006-02-08T21:09:00Z,26.2168,-96.4998,19.0,11144222 
TABS,ioos:station:wmo:42045:1,2006-02-08T21:39:00Z,26.2168,-96.4998,19.0,11144222 
TABS,ioos:station:wmo:42045:1,2006-02-08T22:09:00Z,26.2168,-96.4998,19.0,11144222 
TABS,ioos:station:wmo:42045:1,2006-02-08T22:39:00Z,26.2168,-96.4998,19.0,11144222 
TABS,ioos:station:wmo:42045:1,2006-02-08T23:09:00Z,26.2168,-96.4998,19.1,11144222 
TABS,ioos:station:wmo:42045:1,2006-02-08T23:39:00Z,26.2168,-96.4998,19.1,11144222 
TABS,ioos:station:wmo:42045:1,2006-02-09T00:09:00Z,26.2168,-96.4998,19.0,11144222 
TABS,ioos:station:wmo:42045:1,2006-02-09T00:39:00Z,26.2168,-96.4998,19.1,11144222 
TABS,ioos:station:wmo:42045:1,2006-02-09T01:09:00Z,26.2168,-96.4998,19.1,11144222 
TABS,ioos:station:wmo:42045:1,2006-02-09T01:39:00Z,26.2168,-96.4998,19.2,11144222 
TABS,ioos:station:wmo:42045:1,2006-02-09T02:09:00Z,26.2168,-96.4998,19.3,11144222 
TABS,ioos:station:wmo:42045:1,2006-02-09T02:39:00Z,26.2168,-96.4998,19.4,11144222 
TABS,ioos:station:wmo:42045:1,2006-02-09T03:09:00Z,26.2168,-96.4998,19.4,11144222 
TABS,ioos:station:wmo:42045:1,2006-02-09T03:39:00Z,26.2168,-96.4998,19.6,11144222 
TABS,ioos:station:wmo:42045:1,2006-02-09T04:09:00Z,26.2168,-96.4998,19.7,11144222 
TABS,ioos:station:wmo:42045:1,2006-02-09T04:39:00Z,26.2168,-96.4998,19.8,11144222 
TABS,ioos:station:wmo:42045:1,2006-02-09T05:09:00Z,26.2168,-96.4998,20.0,11144222 
TABS,ioos:station:wmo:42045:1,2006-02-09T05:39:00Z,26.2168,-96.4998,20.1,11144222 
TABS,ioos:station:wmo:42045:1,2006-02-09T06:09:00Z,26.2168,-96.4998,20.2,11144222 
TABS,ioos:station:wmo:42045:1,2006-02-09T06:39:00Z,26.2168,-96.4998,20.3,11144222 
TABS,ioos:station:wmo:42045:1,2006-02-09T07:09:00Z,26.2168,-96.4998,20.3,11144222 
TABS,ioos:station:wmo:42045:1,2006-02-09T07:39:00Z,26.2168,-96.4998,20.4,11144222 
TABS,ioos:station:wmo:42045:1,2006-02-09T08:09:00Z,26.2168,-96.4998,20.4,11144222 
TABS,ioos:station:wmo:42045:1,2006-02-09T08:39:00Z,26.2168,-96.4998,20.4,11144222 
TABS,ioos:station:wmo:42045:1,2006-02-09T09:09:00Z,26.2168,-96.4998,20.5,11144222 
TABS,ioos:station:wmo:42045:1,2006-02-09T09:39:00Z,26.2168,-96.4998,20.6,11144222 
TABS,ioos:station:wmo:42045:1,2006-02-09T10:09:00Z,26.2168,-96.4998,20.6,11144222 
TABS,ioos:station:wmo:42045:1,2006-02-09T10:39:00Z,26.2168,-96.4998,20.6,11144222 
TABS,ioos:station:wmo:42045:1,2006-02-09T11:09:00Z,26.2168,-96.4998,20.6,11144222 
TABS,ioos:station:wmo:42045:1,2006-02-09T11:39:00Z,26.2168,-96.4998,20.7,11144222 
TABS,ioos:station:wmo:42045:1,2006-02-09T12:09:00Z,26.2168,-96.4998,20.7,11144222 
TABS,ioos:station:wmo:42045:1,2006-02-09T12:39:00Z,26.2168,-96.4998,20.8,11144222 
TABS,ioos:station:wmo:42045:1,2006-02-09T13:09:00Z,26.2168,-96.4998,20.9,11144222 
TABS,ioos:station:wmo:42045:1,2006-02-09T13:39:00Z,26.2168,-96.4998,21.2,11144222 
TABS,ioos:station:wmo:42045:1,2006-02-09T14:09:00Z,26.2168,-96.4998,21.5,11144222 
TABS,ioos:station:wmo:42045:1,2006-02-09T14:39:00Z,26.2168,-96.4998,21.6,11144222 
TABS,ioos:station:wmo:42045:1,2006-02-09T15:09:00Z,26.2168,-96.4998,21.7,11144222 
TABS,ioos:station:wmo:42045:1,2006-02-09T16:09:00Z,26.2168,-96.4998,21.9,11144222 
TABS,ioos:station:wmo:42045:1,2006-02-09T16:39:00Z,26.2168,-96.4998,21.9,11144222 
TABS,ioos:station:wmo:42045:1,2006-02-09T17:09:00Z,26.2168,-96.4998,22.1,11144222 
TABS,ioos:station:wmo:42045:1,2006-02-09T17:39:00Z,26.2168,-96.4998,22.2,11144222 
TABS,ioos:station:wmo:42045:1,2006-02-09T18:09:00Z,26.2168,-96.4998,22.0,11144222 
TABS,ioos:station:wmo:42045:1,2006-02-09T18:39:00Z,26.2168,-96.4998,22.0,11144222 
TABS,ioos:station:wmo:42045:1,2006-02-09T19:09:00Z,26.2168,-96.4998,22.2,11144222 
TABS,ioos:station:wmo:42045:1,2006-02-09T19:39:00Z,26.2168,-96.4998,22.2,11144222 
TABS,ioos:station:wmo:42045:1,2006-02-09T20:09:00Z,26.2168,-96.4998,22.2,11144222 
TABS,ioos:station:wmo:42045:1,2006-02-09T20:39:00Z,26.2168,-96.4998,22.2,11144222 
TABS,ioos:station:wmo:42045:1,2006-02-09T21:09:00Z,26.2168,-96.4998,22.2,11144222 
TABS,ioos:station:wmo:42045:1,2006-02-09T22:09:00Z,26.2168,-96.4998,22.0,11144222 
TABS,ioos:station:wmo:42045:1,2006-02-09T22:39:00Z,26.2168,-96.4998,22.1,11144222 
TABS,ioos:station:wmo:42045:1,2006-02-09T23:09:00Z,26.2168,-96.4998,22.1,11144222 
TABS,ioos:station:wmo:42045:1,2006-02-09T23:39:00Z,26.2168,-96.4998,22.3,11144222 
TABS,ioos:station:wmo:42045:1,2006-02-10T00:09:00Z,26.2168,-96.4998,22.2,11144222 
TABS,ioos:station:wmo:42045:1,2006-02-10T00:39:00Z,26.2168,-96.4998,22.3,11144222 
TABS,ioos:station:wmo:42045:1,2006-02-10T01:09:00Z,26.2168,-96.4998,22.2,11144222 
TABS,ioos:station:wmo:42045:1,2006-02-10T01:39:00Z,26.2168,-96.4998,22.2,11144222 
TABS,ioos:station:wmo:42045:1,2006-02-10T02:09:00Z,26.2168,-96.4998,22.3,11144222 
TABS,ioos:station:wmo:42045:1,2006-02-10T02:39:00Z,26.2168,-96.4998,22.3,11144222 
TABS,ioos:station:wmo:42045:1,2006-02-10T03:09:00Z,26.2168,-96.4998,22.3,11144222 
TABS,ioos:station:wmo:42045:1,2006-02-10T03:39:00Z,26.2168,-96.4998,22.5,11144222 
TABS,ioos:station:wmo:42045:1,2006-02-10T04:09:00Z,26.2168,-96.4998,22.5,11144222 
TABS,ioos:station:wmo:42045:1,2006-02-10T04:39:00Z,26.2168,-96.4998,22.6,11144222 
TABS,ioos:station:wmo:42045:1,2006-02-10T05:09:00Z,26.2168,-96.4998,22.6,11144222 
TABS,ioos:station:wmo:42045:1,2006-02-10T05:39:00Z,26.2168,-96.4998,22.8,11144222 
TABS,ioos:station:wmo:42045:1,2006-02-10T06:09:00Z,26.2168,-96.4998,22.8,11144222 
TABS,ioos:station:wmo:42045:1,2006-02-10T06:39:00Z,26.2168,-96.4998,22.8,11144222 
TABS,ioos:station:wmo:42045:1,2006-02-10T07:09:00Z,26.2168,-96.4998,22.9,11144222 
TABS,ioos:station:wmo:42045:1,2006-02-10T07:39:00Z,26.2168,-96.4998,23.0,11144222 
TABS,ioos:station:wmo:42045:1,2006-02-10T08:09:00Z,26.2168,-96.4998,23.0,11144222 
TABS,ioos:station:wmo:42045:1,2006-02-10T08:39:00Z,26.2168,-96.4998,23.0,11144222 
TABS,ioos:station:wmo:42045:1,2006-02-10T09:09:00Z,26.2168,-96.4998,23.0,11144222 
TABS,ioos:station:wmo:42045:1,2006-02-10T09:39:00Z,26.2168,-96.4998,23.0,11144222 
TABS,ioos:station:wmo:42045:1,2006-02-10T10:09:00Z,26.2168,-96.4998,23.1,11144222 
TABS,ioos:station:wmo:42045:1,2006-02-10T10:39:00Z,26.2168,-96.4998,23.0,11144222 
TABS,ioos:station:wmo:42045:1,2006-02-10T11:09:00Z,26.2168,-96.4998,23.1,11144222 
TABS,ioos:station:wmo:42045:1,2006-02-10T11:39:00Z,26.2168,-96.4998,23.2,11144222 
TABS,ioos:station:wmo:42045:1,2006-02-10T12:09:00Z,26.2168,-96.4998,23.1,11144222 
TABS,ioos:station:wmo:42045:1,2006-02-10T12:39:00Z,26.2168,-96.4998,23.3,11144222 
TABS,ioos:station:wmo:42045:1,2006-02-10T13:09:00Z,26.2168,-96.4998,23.3,11144222 
TABS,ioos:station:wmo:42045:1,2006-02-10T13:39:00Z,26.2168,-96.4998,23.3,11144222 
TABS,ioos:station:wmo:42045:1,2006-02-10T14:09:00Z,26.2168,-96.4998,23.3,11144222 
TABS,ioos:station:wmo:42045:1,2006-02-10T14:39:00Z,26.2168,-96.4998,23.3,11144222 
TABS,ioos:station:wmo:42045:1,2006-02-10T15:09:00Z,26.2168,-96.4998,23.3,11144222 
TABS,ioos:station:wmo:42045:1,2006-02-10T16:09:00Z,26.2168,-96.4998,23.4,11144222 
TABS,ioos:station:wmo:42045:1,2006-02-10T16:39:00Z,26.2168,-96.4998,23.4,11144222 
TABS,ioos:station:wmo:42045:1,2006-02-10T17:09:00Z,26.2168,-96.4998,23.4,11144222 
TABS,ioos:station:wmo:42045:1,2006-02-10T17:39:00Z,26.2168,-96.4998,23.4,11144222 
TABS,ioos:station:wmo:42045:1,2006-02-10T18:09:00Z,26.2168,-96.4998,23.5,11144222 
TABS,ioos:station:wmo:42045:1,2006-02-10T18:39:00Z,26.2168,-96.4998,23.5,11144222 
TABS,ioos:station:wmo:42045:1,2006-02-10T19:09:00Z,26.2168,-96.4998,23.5,11144222 
TABS,ioos:station:wmo:42045:1,2006-02-10T19:39:00Z,26.2168,-96.4998,23.5,11144222 
TABS,ioos:station:wmo:42045:1,2006-02-10T20:09:00Z,26.2168,-96.4998,23.5,11144222 
TABS,ioos:station:wmo:42045:1,2006-02-10T20:39:00Z,26.2168,-96.4998,23.6,11144222 